Theta_e
321 320 320 320 321 321 321 321 322 322 322 322 323 323 322 322 321 315 305 310 315 331 324 307 305 305 304 300 301 299 292 289 291 295 300 309 320 328 330 327 327 329 328 330 335
320 320 319 319 320 320 320 321 322 322 322 323 323 323 322 322 313 309 321 333 332 329 305 302 301 305 300 298 299 296 289 293 299 299 300 305 320 323 323 322 323 326 331 334 334
318 319 319 318 319 319 319 320 321 322 322 322 322 322 321 320 311 314 336 335 334 324 308 307 306 305 297 297 298 294 294 299 302 302 302 307 312 321 324 320 323 323 328 331 335
317 318 318 318 318 318 319 319 320 320 321 321 321 321 321 314 301 311 341 338 334 312 307 306 305 298 294 294 297 294 300 301 303 303 303 304 321 320 323 324 327 327 331 333 329
317 317 317 317 317 317 318 318 319 319 319 320 320 321 313 307 310 320 339 335 317 307 306 305 303 300 296 296 298 297 300 302 304 300 302 324 323 323 324 327 331 333 330 327 327
316 316 316 317 317 317 317 318 317 317 318 319 320 322 312 302 316 321 320 319 314 306 304 306 306 305 301 299 298 302 300 301 302 301 304 318 319 324 326 330 328 327 324 324 324
316 315 316 316 316 317 317 316 316 316 317 319 321 319 309 306 317 317 315 312 312 312 308 310 308 305 302 300 303 304 298 300 300 300 310 323 317 317 326 327 323 322 321 322 322
315 315 315 315 316 316 317 316 316 316 318 322 322 314 304 317 318 315 315 312 312 312 312 312 309 304 301 304 304 300 298 294 297 301 304 318 311 320 324 320 318 318 318 317 317
315 314 314 315 315 316 315 314 315 317 322 323 312 308 306 321 313 316 314 312 312 310 310 315 306 302 303 297 295 295 292 292 297 301 303 310 311 318 321 318 315 315 314 315 314
314 313 313 314 314 314 313 313 317 316 318 320 317 305 310 311 309 316 314 315 310 309 308 305 301 297 295 294 289 291 292 294 296 300 313 312 312 316 317 316 313 313 312 311 311
314 313 313 313 313 313 309 305 307 309 309 307 306 308 309 316 314 310 313 311 308 305 298 300 296 292 297 298 299 298 295 294 300 311 312 311 311 312 313 313 311 310 309 309 310
313 313 313 313 313 312 306 299 306 309 300 311 313 311 313 313 307 309 312 304 303 297 300 297 294 301 302 301 299 297 295 294 299 306 312 311 309 311 311 310 310 309 308 307 306
312 312 312 312 311 307 305 306 306 307 298 306 311 311 311 312 308 307 308 304 301 298 298 294 299 305 303 299 299 294 293 295 296 303 312 309 304 305 309 310 311 309 309 307 305
311 311 311 311 307 306 304 310 308 307 294 302 305 309 312 309 305 312 310 305 301 299 300 298 303 302 299 299 298 293 301 301 300 295 293 301 293 302 303 304 305 305 305 306 306
311 311 311 310 301 303 306 309 314 307 287 308 307 314 311 304 305 306 310 305 300 301 301 298 300 299 298 300 302 299 302 299 299 293 291 292 294 300 304 300 301 303 304 303 304
310 310 310 307 303 308 311 312 307 296 289 303 304 302 301 302 304 306 306 308 307 303 303 301 305 302 301 303 303 304 298 296 293 290 286 291 290 298 300 302 302 304 304 306 305
309 309 307 308 301 309 307 304 293 289 304 301 298 301 300 300 301 303 301 299 296 293 295 301 301 302 304 299 300 298 292 286 286 285 285 294 294 295 304 308 305 304 305 304 304
308 307 306 308 307 309 306 298 287 299 300 307 302 301 299 300 300 302 300 297 301 300 296 295 293 301 305 299 294 293 292 286 282 282 286 297 292 296 308 309 307 305 304 303 302
306 302 305 312 311 310 301 290 292 299 306 305 303 297 297 301 301 300 299 299 302 302 295 294 296 304 305 303 300 294 288 293 288 287 285 292 296 303 304 302 303 302 303 302 302
299 301 307 316 314 307 297 293 298 307 308 307 302 301 294 297 297 297 297 303 303 305 303 298 293 303 306 306 303 296 297 289 286 281 280 288 292 293 298 299 301 301 301 301 302
299 303 313 316 312 302 293 295 303 309 310 306 305 302 302 302 299 296 299 304 306 304 303 299 295 296 302 298 296 295 292 291 289 288 284 283 287 299 302 302 301 301 302 302 301
296 298 314 311 299 298 295 302 305 307 309 306 306 307 304 303 301 302 302 304 309 306 301 302 296 292 296 302 304 298 294 290 285 285 288 287 287 301 302 303 303 303 303 300 299
291 296 309 309 294 294 300 307 308 309 308 305 303 306 306 301 296 303 304 308 311 307 303 301 293 288 291 295 300 299 301 295 292 289 287 284 286 302 302 302 303 301 300 299 298
293 295 301 304 301 297 299 302 304 311 306 306 305 306 303 300 302 300 302 307 308 305 313 306 295 291 287 290 297 296 300 298 292 284 287 288 292 296 298 299 299 299 297 298 297
297 298 299 293 296 297 297 303 304 304 307 305 301 303 301 297 298 300 303 303 304 309 303 298 292 295 297 300 299 297 298 297 292 292 288 291 294 296 298 298 297 297 298 297 296
296 295 299 297 298 296 296 297 302 303 303 302 300 302 302 297 300 298 301 299 298 300 298 298 292 295 294 300 300 298 299 297 296 294 296 297 294 298 299 300 298 298 298 297 297
297 299 297 296 295 294 294 298 299 301 305 309 307 303 302 305 307 305 304 303 302 299 297 297 294 291 288 298 297 290 295 296 295 297 297 292 295 298 298 299 297 297 298 297 296
Wind_Speed
17 16 15 14 12 11 11 10 9 9 9 9 9 9 10 11 14 2 7 12 8 7 6 6 4 4 3 3 2 3 4 6 3 2 8 3 4 4 7 9 6 5 6 13 12
19 18 17 16 15 13 12 10 9 8 8 8 8 8 9 10 3 8 13 11 9 5 2 2 5 6 3 3 1 5 4 8 8 5 7 7 6 11 6 5 13 19 16 13 12
19 18 18 17 17 15 15 13 11 9 7 7 8 8 8 6 4 8 7 13 7 5 2 1 1 2 2 3 4 3 7 8 12 10 4 7 10 6 14 4 7 25 19 14 6
19 19 18 18 18 17 16 14 13 11 9 7 7 8 8 2 3 3 8 11 8 3 2 1 2 2 3 4 3 5 11 9 13 6 4 5 6 10 13 7 13 14 12 7 6
18 19 19 17 17 17 16 15 13 12 9 8 6 6 2 2 10 4 10 8 4 4 5 4 1 1 3 4 3 6 10 8 14 3 2 21 15 19 16 16 14 13 14 14 11
19 18 18 18 17 17 16 15 12 10 9 7 5 1 1 3 6 9 9 6 5 4 3 5 6 8 7 5 6 5 5 9 4 4 7 28 13 13 8 15 20 19 15 11 13
21 20 20 20 18 18 17 15 13 11 9 6 5 4 2 14 4 7 11 9 6 6 4 6 6 6 1 7 2 6 2 5 2 2 16 26 17 19 19 17 19 17 13 13 12
22 22 21 21 21 20 19 17 15 12 8 5 6 3 8 6 6 4 5 4 5 7 6 9 3 0 3 4 9 6 5 2 5 4 3 17 12 12 12 18 15 17 13 14 13
23 23 23 22 22 22 22 22 16 8 3 8 4 3 11 11 5 10 9 7 4 6 6 5 3 2 6 3 6 7 3 3 9 6 6 11 15 12 11 16 15 12 11 12 10
23 24 24 23 22 22 25 14 2 2 3 4 4 3 5 5 4 6 5 7 3 3 4 1 5 3 4 6 3 5 3 5 9 0 16 18 15 16 13 16 17 14 11 11 11
24 24 24 25 23 18 14 3 4 3 2 9 7 6 5 6 4 5 6 1 3 3 4 3 4 5 9 8 8 6 2 4 7 11 18 18 17 15 12 14 16 13 12 11 11
25 25 26 27 26 22 2 2 7 5 7 11 14 9 9 4 6 5 6 5 2 5 1 5 6 13 8 8 8 2 1 4 4 1 21 16 13 7 5 9 13 14 12 11 8
25 25 26 28 31 3 3 9 2 8 2 9 10 6 7 8 11 7 10 6 4 3 6 7 12 2 8 0 2 2 3 2 1 12 20 20 7 7 5 6 10 9 10 9 10
26 25 24 29 3 5 5 4 3 6 3 8 6 7 4 5 4 7 11 7 3 8 10 8 14 8 2 2 3 5 3 5 6 5 6 1 4 5 8 7 9 11 9 9 7
27 25 23 10 6 3 6 10 12 5 3 5 5 5 6 9 3 2 7 3 5 5 1 8 2 2 6 2 5 2 2 3 2 4 5 1 7 5 7 4 7 5 7 7 8
28 27 21 0 3 11 10 12 3 7 7 4 7 7 6 3 2 6 5 3 2 3 2 6 4 6 4 4 6 1 6 9 7 4 5 7 7 6 8 9 9 7 9 9 8
31 30 12 4 7 2 5 4 6 4 6 5 7 8 7 7 4 6 6 3 4 3 4 7 3 2 3 6 9 10 8 5 6 6 6 8 6 4 10 8 12 13 10 7 8
33 30 5 8 6 3 3 7 3 5 6 3 5 9 8 6 5 10 7 3 4 3 3 3 6 3 2 6 5 2 7 6 3 2 5 7 3 5 5 7 11 10 8 8 8
29 4 4 7 8 3 6 3 7 5 4 8 3 7 6 8 7 6 9 9 6 7 7 4 3 5 4 3 6 3 1 5 5 2 2 3 3 4 7 8 9 8 8 8 8
5 5 5 1 9 5 6 6 5 4 9 10 2 2 5 6 8 7 8 4 7 5 8 5 5 2 4 8 5 4 2 5 5 1 2 3 5 6 10 11 8 7 8 7 7
2 5 6 8 5 6 4 7 6 8 8 4 2 2 1 2 5 6 5 4 3 4 8 6 5 6 4 3 2 5 3 5 5 4 5 2 5 6 17 15 14 10 9 8 7
5 2 4 5 4 1 3 5 5 11 11 3 3 2 1 4 5 3 4 2 2 5 5 1 6 2 2 6 3 4 2 5 7 3 1 3 7 5 10 15 13 10 7 7 14
4 5 6 6 2 3 6 5 5 14 10 3 2 2 1 1 3 4 4 6 6 5 7 4 3 4 9 8 6 5 0 5 6 4 4 4 7 5 7 8 7 11 10 13 14
2 5 6 5 1 2 5 5 4 9 6 4 1 3 6 2 2 4 4 6 4 4 8 9 4 7 9 7 3 2 2 1 7 5 4 6 4 3 7 12 9 9 13 14 11
2 3 2 4 5 6 3 4 5 6 7 5 1 3 3 2 2 5 4 2 6 2 5 6 4 2 2 3 2 2 6 7 5 5 7 5 10 9 8 9 9 13 13 12 9
3 4 6 4 5 6 4 5 3 8 5 9 3 7 1 4 5 6 8 4 4 1 3 3 2 2 3 4 6 5 6 7 5 5 8 10 6 4 6 11 14 14 13 11 9
4 4 2 5 6 4 3 7 9 8 7 1 2 5 6 3 6 5 5 6 10 10 4 5 5 4 4 2 4 5 3 3 3 3 12 6 8 8 8 12 10 11 11 11 10
Wind_Direction
10 5 358 349 339 331 325 318 312 309 308 312 317 315 313 315 307 158 241 221 191 237 327 315 327 340 50 273 188 81 57 268 247 318 269 134 125 21 36 80 56 39 104 130 149
8 4 357 351 344 335 326 319 311 308 307 308 309 310 313 323 283 246 238 223 223 180 183 277 303 14 333 280 304 109 127 240 203 218 261 287 167 153 95 86 83 86 106 129 139
3 360 355 350 345 338 330 323 318 314 314 315 313 312 317 318 312 252 216 194 173 184 225 285 293 92 247 191 225 227 206 246 279 257 220 269 81 99 130 32 169 143 142 145 124
356 353 351 347 342 338 332 325 319 318 317 314 313 316 321 301 265 281 92 136 169 203 252 248 42 178 236 230 223 198 248 235 267 286 312 302 91 77 120 139 110 119 120 106 67
350 348 345 342 339 335 331 325 317 313 309 304 299 314 319 339 252 224 134 147 155 177 217 174 317 164 248 262 347 188 262 263 250 266 115 79 79 105 91 96 106 104 79 64 56
347 344 340 338 336 332 326 319 310 302 298 288 271 236 128 275 238 152 145 139 227 203 209 146 220 205 265 239 163 240 234 262 172 143 104 104 101 99 125 127 93 86 80 74 62
344 342 340 336 334 330 323 316 307 297 292 269 228 216 201 241 251 170 157 190 194 199 210 211 235 196 282 317 250 254 229 354 338 55 111 104 53 107 117 110 98 91 80 69 57
342 339 338 334 332 330 322 313 301 294 284 232 192 205 249 238 241 188 240 280 226 235 223 255 227 77 158 288 344 355 56 18 291 99 38 90 130 126 122 109 101 95 91 78 63
339 336 334 333 330 328 323 311 296 266 192 144 141 174 270 304 154 217 183 214 240 240 240 267 35 215 3 56 1 0 280 294 308 179 134 111 142 154 133 119 115 106 99 89 72
337 334 331 329 328 328 324 302 133 157 161 196 263 350 278 242 212 203 215 218 198 247 339 230 40 24 11 67 234 273 302 233 253 235 92 111 130 147 157 141 131 125 120 107 101
334 332 328 324 326 327 341 14 21 18 174 207 193 228 263 247 149 209 202 102 29 34 216 309 50 249 242 202 210 246 245 351 36 113 98 127 138 149 148 137 127 127 123 123 119
332 330 327 323 319 321 174 207 221 171 308 236 243 243 254 287 277 231 106 146 140 237 20 3 246 245 241 254 202 84 66 352 43 101 102 108 115 119 134 130 131 134 133 131 125
328 328 327 323 318 114 191 232 3 47 324 277 206 214 222 172 225 219 152 187 195 270 246 176 247 4 203 106 52 46 39 356 166 73 110 106 67 106 104 120 127 120 126 130 137
325 325 330 330 358 319 256 287 315 137 32 274 193 240 252 182 274 182 191 150 181 233 258 216 256 214 151 4 76 37 300 75 87 77 160 141 167 199 162 132 122 132 139 146 138
322 322 326 321 299 277 271 332 340 58 9 248 179 193 186 154 183 251 177 125 211 256 337 266 58 91 83 93 69 194 58 51 79 89 121 162 94 178 148 158 154 149 137 141 135
319 318 328 326 202 241 314 305 63 53 251 270 153 168 135 203 244 181 162 132 185 271 248 218 283 119 151 69 62 302 34 28 40 54 18 267 128 200 182 182 164 147 147 141 119
318 313 308 243 229 90 297 43 53 162 294 213 174 154 174 202 200 159 189 186 164 60 347 339 322 87 115 61 15 57 53 1 2 12 225 328 61 201 289 166 156 150 143 137 124
321 312 239 209 233 303 21 58 202 251 241 251 152 160 176 196 199 190 155 209 258 129 86 64 13 42 16 125 177 99 126 147 210 220 258 10 29 306 340 118 130 132 137 128 125
320 317 267 247 194 131 74 100 211 228 306 357 150 161 232 218 184 162 178 197 210 161 130 107 54 13 88 112 100 315 3 180 132 355 70 143 69 75 86 96 120 133 127 132 144
315 324 268 241 139 80 79 225 243 252 331 340 311 105 220 240 153 166 183 204 163 144 129 179 123 354 16 50 19 162 185 36 8 102 292 247 185 193 177 163 160 156 165 171 145
342 357 264 131 85 54 169 231 284 279 304 249 148 103 337 335 209 180 171 9 104 121 91 112 101 290 62 80 226 358 23 62 108 123 174 261 255 199 187 173 171 181 184 168 129
347 346 288 24 67 141 192 207 256 270 321 312 103 88 103 332 345 80 116 126 67 128 105 51 129 130 209 276 191 150 154 119 117 261 194 155 267 325 167 173 166 173 147 119 118
330 276 310 100 169 271 284 277 254 272 260 249 318 331 135 238 58 82 72 357 66 83 147 189 30 50 352 352 353 75 238 126 106 79 199 141 266 23 97 128 145 134 133 109 108
351 347 322 29 70 61 349 277 281 299 226 140 132 59 23 12 145 148 110 37 39 92 85 82 104 151 188 206 193 297 275 289 124 117 212 217 131 84 113 126 126 107 102 116 122
118 296 348 334 332 331 247 276 324 346 358 32 22 157 142 299 330 117 93 103 26 63 66 93 130 124 214 290 347 261 299 238 166 193 154 219 160 190 159 135 116 115 115 118 118
48 18 342 294 300 331 327 352 337 332 354 329 352 293 92 171 207 168 133 126 170 20 83 31 198 112 301 334 358 312 290 247 206 136 66 110 70 132 112 107 119 135 136 133 132
322 339 110 293 336 4 33 320 314 338 289 248 265 79 58 307 134 151 134 163 161 140 142 129 126 87 253 344 16 348 290 135 122 60 137 168 190 151 134 132 141 139 136 133 129